This is the latest recevied weather packets stored in our database for station/object XW7RMR. If no packets are shown the sender has not sent any weather packets the latest 10 day(s).
| Time | Temp. | Humidity | Pressure | Rain* | Wind** | Luminosity | Snow |
|---|---|---|---|---|---|---|---|
| 1777833253 | 26.67° C | 44% | 1009.4 hPa | 0 mm | - | 746 W/m² | - |
| 1777832950 | 26.11° C | 45% | 1009.4 hPa | 0 mm | - | 737 W/m² | - |
| 1777832649 | 26.11° C | 44% | 1009.4 hPa | 0 mm | - | 727 W/m² | - |
| 1777832345 | 26.11° C | 45% | 1009.6 hPa | 0 mm | - | 717 W/m² | - |
| 1777832042 | 25.56° C | 45% | 1009.5 hPa | 0 mm | - | 706 W/m² | - |
| 1777831739 | 25.56° C | 45% | 1009.6 hPa | 0 mm | - | 697 W/m² | - |
| 1777831437 | 25° C | 46% | 1009.7 hPa | 0 mm | - | 686 W/m² | - |
| 1777831133 | 25° C | 47% | 1009.7 hPa | 0 mm | - | 675 W/m² | - |
| 1777830831 | 25° C | 48% | 1009.7 hPa | 0 mm | - | 664 W/m² | - |
| 1777830527 | 24.44° C | 50% | 1009.7 hPa | 0 mm | - | 652 W/m² | - |
| 1777830225 | 24.44° C | 50% | 1009.8 hPa | 0 mm | - | 641 W/m² | - |
| 1777829925 | 24.44° C | 49% | 1009.9 hPa | 0 mm | - | 628 W/m² | - |
| 1777829622 | 25° C | 48% | 1009.9 hPa | 0 mm | - | 618 W/m² | - |
| 1777829318 | 24.44° C | 46% | 1009.9 hPa | 0 mm | - | 605 W/m² | - |
| 1777829016 | 25° C | 52% | 1009.9 hPa | 0 mm | - | 592 W/m² | - |
| 1777828712 | 23.89° C | 57% | 1009.9 hPa | 0 mm | - | 577 W/m² | - |
| 1777828409 | 23.89° C | 56% | 1009.9 hPa | 0 mm | - | 565 W/m² | - |
| 1777828106 | 23.89° C | 58% | 1009.8 hPa | 0 mm | - | 552 W/m² | - |
| 1777827802 | 22.78° C | 64% | 1009.9 hPa | 0 mm | - | 539 W/m² | - |
| 1777827500 | 22.22° C | 66% | 1009.9 hPa | 0 mm | - | 525 W/m² | - |
| 1777827198 | 21.67° C | 65% | 1010 hPa | 0 mm | - | 508 W/m² | - |
| 1777826893 | 22.22° C | 64% | 1010 hPa | 0 mm | - | 499 W/m² | - |
| 1777826591 | 22.22° C | 65% | 1010.1 hPa | 0 mm | - | 484 W/m² | - |
| 1777826287 | 21.67° C | 66% | 1010.1 hPa | 0 mm | - | 490 W/m² | - |
| 1777825985 | 21.11° C | 66% | 1010.1 hPa | 0 mm | - | 456 W/m² | - |
* Rain latest hour (hover to see other rain measurements)
** Current wind speed in m/s (hover to see current wind gust speed)